Powrót do katalogu

COSMOS 2251 DEB

AktywnyLEO
NORAD 37537·DEBRIS·🇷🇺 Russia

Wystrzelony Jun 16, 1993 z Plesetsk Cosmodrome

Loading…

Następne Przeloty (najbliższe 24 godziny)

TLE

ŚwieżeSource: Space-Track

Epoka: Sep 14, 2026, 08:22 UTC

1 37537U 93036BNS 26257.34929204  .00000292  00000-0  10417-3 0  9990
2 37537  74.0107 117.0354 0051628 193.4810 166.4968 14.37778587889940

Śledź COSMOS 2251 DEB w czasie rzeczywistym z AllMySat

Download on the App Store